GFSGL_925_rhum_108.txt.gz
RH
100 100 100 100 97 96 100 100 100 98 99 98 99 100 100 100 100 100 99 99 99 100 100 100 99 99 100 99 95 93 92 87 78 84 79 79 74 72 69 67 68 68 69
100 100 100 100 100 98 100 100 100 100 98 94 100 100 100 100 100 100 100 100 100 100 100 100 100 100 100 100 99 99 96 85 79 83 79 84 75 74 64 62 64 73 77
100 100 100 100 100 100 100 100 100 100 100 100 100 100 100 100 100 100 100 100 100 100 100 100 100 100 99 100 100 98 94 90 88 82 85 83 83 72 84 88 90 92 88
99 100 100 100 100 100 100 100 100 99 96 97 94 93 92 93 97 94 97 99 100 100 100 100 100 100 100 99 100 98 93 95 93 89 85 85 82 86 82 98 100 100 98
99 100 100 100 100 100 100 100 100 99 98 99 99 100 100 100 100 97 96 98 100 99 98 100 100 100 99 99 99 100 98 98 98 94 91 91 89 97 99 100 100 100 100
100 100 100 97 100 100 100 100 99 100 100 100 100 100 100 100 100 100 100 99 99 99 99 100 100 100 100 100 100 99 99 98 96 93 91 92 92 95 95 100 100 100 100
100 100 100 97 97 99 100 100 99 100 100 99 100 100 100 100 100 100 100 100 100 100 100 100 99 100 100 100 100 100 100 98 92 90 91 92 97 97 92 95 96 94 96
99 100 100 98 97 100 99 100 100 100 99 100 100 99 100 100 100 100 100 100 100 100 100 100 100 99 100 100 100 100 100 100 100 100 99 97 94 92 89 87 91 94 100
99 100 100 100 100 98 100 100 98 97 100 100 100 100 100 100 100 100 100 100 100 100 100 100 100 99 100 100 100 100 100 100 100 100 100 100 100 100 100 99 100 100 100
100 100 100 100 100 100 100 100 100 100 100 93 100 100 100 100 98 100 100 100 100 100 99 99 100 100 100 100 99 100 99 99 100 100 99 100 100 100 100 100 100 100 97
100 100 100 100 100 99 100 99 100 100 99 100 98 97 100 100 100 100 100 100 100 100 100 100 100 100 100 100 100 100 99 99 99 99 98 98 99 100 100 100 100 100 96
98 100 100 100 100 100 100 100 100 100 98 99 98 98 100 95 98 100 100 100 100 100 100 100 100 100 100 98 98 100 98 98 97 97 95 97 95 98 98 98 98 98 97
100 99 98 96 100 100 100 100 100 99 98 98 98 97 98 100 97 97 96 96 99 100 100 100 100 100 100 100 100 97 96 98 99 100 100 99 98 98 93 85 80 82 80
100 100 98 100 100 100 100 100 99 100 99 98 97 98 99 100 99 96 97 97 96 95 95 96 96 98 97 97 95 96 97 97 99 100 99 96 96 96 96 84 52 45 44
97 92 89 86 89 96 100 100 100 99 100 100 100 100 99 98 99 98 96 96 96 97 96 95 94 95 96 96 96 96 96 96 96 96 96 96 96 96 95 73 56 52 86
95 90 74 72 84 84 82 83 99 100 100 100 100 100 98 98 99 99 97 96 95 96 95 97 97 96 97 97 96 96 95 95 96 95 95 96 96 96 95 92 87 90 94
87 83 74 64 76 84 87 85 86 67 83 100 100 100 100 100 100 100 100 97 96 92 95 97 97 97 97 96 96 96 96 96 96 94 94 95 94 94 94 100 100 96 99
85 84 75 68 70 78 82 83 83 88 92 77 77 95 100 100 100 100 92 77 86 93 96 97 98 96 96 95 95 96 96 95 95 95 95 94 90 88 96 99 98 94 89
87 89 86 80 72 70 69 72 75 78 84 84 72 66 74 89 80 79 78 87 97 100 98 95 95 92 91 86 82 81 86 87 88 87 89 88 84 82 88 88 85 84 85
88 80 81 89 90 83 82 79 76 76 79 83 86 83 69 60 81 89 88 91 94 96 95 95 94 87 82 79 78 78 80 83 84 84 83 79 77 76 80 80 76 85 90
86 84 83 80 91 97 96 91 85 79 78 78 79 75 70 75 84 88 95 95 90 90 92 94 93 88 82 75 68 64 73 84 86 81 80 80 78 80 80 80 81 78 74
89 91 93 96 94 93 96 97 94 89 88 87 84 80 78 74 74 89 89 90 93 91 92 90 88 90 87 81 77 68 60 72 86 89 82 76 76 82 81 80 78 76 76
76 85 88 92 94 95 94 93 92 94 94 92 93 92 90 86 78 76 85 90 92 88 81 77 84 92 92 81 70 63 56 60 64 79 84 79 80 86 85 83 83 82 80
80 82 82 82 81 87 94 95 96 96 95 93 95 100 96 94 91 86 85 86 91 95 88 84 83 91 92 88 81 74 69 61 59 61 69 86 88 92 88 83 81 83 88
73 75 80 90 85 72 75 96 100 98 93 99 96 94 98 97 98 98 98 97 90 98 98 92 90 88 98 94 85 78 73 68 60 59 70 90 93 91 84 85 86 85 88
84 87 91 87 93 93 75 86 96 94 94 95 96 95 91 96 99 98 100 98 92 88 95 100 99 99 98 99 96 88 85 80 69 63 64 75 89 92 86 89 89 92 97

GFSGL_925_rhum_114.txt.gz
RH
100 100 100 100 92 78 88 86 83 81 84 94 97 100 100 100 100 100 100 100 100 100 100 100 100 100 100 100 100 100 99 95 92 85 81 81 93 97 100 100 100 96 84
100 100 100 100 100 95 87 88 89 86 96 98 100 100 100 99 100 100 100 100 99 100 100 100 100 100 100 95 94 98 99 95 96 86 87 94 96 98 100 100 100 100 89
99 100 100 100 100 100 100 100 100 100 100 100 100 100 99 100 100 100 99 99 100 100 100 99 95 88 87 89 93 97 99 96 92 91 88 91 98 100 100 100 100 100 88
99 99 100 100 100 100 100 100 100 100 100 100 100 100 100 100 100 100 100 100 100 100 99 99 91 89 90 92 95 97 96 97 98 98 94 98 99 100 100 100 100 100 99
99 99 100 100 100 100 100 100 100 100 100 100 100 100 100 100 100 100 99 98 96 97 93 93 94 98 99 100 100 98 97 99 98 97 97 96 97 98 98 98 98 100 100
98 100 100 100 100 100 100 100 100 100 100 100 100 99 100 99 100 99 100 100 100 100 100 99 99 100 100 98 98 99 100 100 96 96 94 95 94 95 99 96 98 99 99
98 99 100 99 99 100 99 98 100 100 100 100 100 99 99 100 100 100 100 99 100 100 100 99 99 99 98 99 100 99 100 100 100 99 98 94 90 90 95 98 99 97 92
97 98 99 100 100 100 100 100 98 99 100 100 100 100 100 99 100 99 100 99 99 100 100 99 99 99 99 99 99 100 100 99 99 100 100 100 98 92 94 94 96 98 100
98 100 100 100 98 99 98 99 99 99 99 99 99 99 99 100 100 100 98 99 100 100 100 99 100 100 100 99 99 100 100 100 100 100 100 100 100 100 100 100 100 98 100
100 100 100 100 100 100 99 98 99 98 99 100 98 98 100 100 100 99 97 94 93 98 99 100 100 100 100 100 100 100 99 100 100 100 100 100 100 100 100 100 100 97 100
100 100 100 100 100 100 100 100 100 100 99 99 99 98 98 96 97 97 97 97 99 100 100 100 100 100 99 100 99 99 100 100 99 98 100 100 100 98 98 100 100 100 100
100 100 100 100 100 100 99 99 99 96 95 94 94 94 98 100 100 100 100 99 97 96 97 97 97 99 99 98 98 97 97 97 96 94 99 100 100 98 96 98 100 100 99
93 95 96 95 97 97 96 96 94 93 93 92 91 92 94 98 100 100 100 100 100 100 100 98 96 96 99 97 99 93 91 94 98 98 99 100 100 100 98 95 97 99 96
84 81 82 84 84 87 88 90 94 95 92 94 93 94 94 95 99 99 99 99 100 100 100 100 97 98 97 96 95 95 97 97 97 97 98 97 97 97 96 96 97 97 98
70 72 70 68 72 70 84 81 82 93 94 89 92 93 95 93 98 100 100 100 100 99 97 97 95 94 93 94 96 99 98 98 98 98 97 98 98 97 98 99 97 97 96
58 59 66 64 63 63 64 67 85 87 89 93 95 92 94 96 100 98 98 98 98 96 92 92 93 93 91 91 92 93 96 97 98 98 98 98 97 96 97 98 97 97 95
72 67 62 63 63 66 68 68 68 73 80 84 86 91 94 96 98 96 90 85 83 83 86 89 90 91 89 89 91 92 94 99 99 97 97 97 97 97 96 95 96 96 94
76 80 73 74 75 75 75 74 72 73 72 74 79 80 84 91 93 94 89 73 71 72 71 74 75 74 70 75 84 89 92 94 96 95 96 97 97 96 95 95 95 94 94
77 81 80 80 80 79 75 73 72 71 71 72 72 73 76 80 84 87 88 81 76 73 70 71 74 74 73 74 86 86 89 90 91 90 90 91 93 88 88 89 87 80 66
79 91 81 76 74 74 72 71 69 69 68 70 75 82 79 73 76 78 82 86 81 78 78 74 77 82 85 81 83 87 79 82 81 79 87 87 84 78 77 74 72 64 58
74 75 77 71 71 71 70 69 68 68 68 66 70 92 86 78 75 76 78 84 83 82 86 85 84 87 84 82 80 84 85 86 86 84 83 82 86 78 75 74 71 64 57
72 69 67 69 68 73 73 68 71 72 70 71 73 76 88 80 78 78 81 91 92 88 86 88 89 89 92 93 90 90 86 90 92 89 84 82 78 78 76 75 74 69 61
72 75 68 66 73 72 72 72 74 75 74 75 78 78 79 83 85 84 88 93 93 96 99 95 95 94 98 100 100 96 93 96 99 100 91 83 79 78 78 75 73 71 72
77 78 72 71 76 76 77 78 76 76 78 78 81 82 81 84 87 88 89 93 95 95 98 100 100 100 100 100 100 98 100 100 100 100 100 91 81 78 79 76 78 83 78
83 82 78 77 80 80 80 77 77 78 79 80 81 82 80 84 85 89 88 91 94 94 95 100 100 100 100 100 100 96 73 63 61 88 100 98 98 93 90 82 83 80 82
86 83 83 82 82 82 82 82 82 82 81 84 84 86 87 86 86 87 90 90 90 90 96 93 99 100 100 100 100 91 86 80 73 63 100 97 94 89 87 87 90 80 81

GFSGL_925_rhum_117.txt.gz
RH
100 100 100 100 100 100 97 81 73 65 66 74 89 100 100 100 100 100 99 100 100 99 100 100 99 95 95 93 81 85 87 86 90 82 75 73 70 95 100 100 100 100 99
100 100 100 100 100 100 97 75 71 73 69 75 83 90 96 100 100 100 98 99 100 98 100 100 100 100 100 99 100 100 99 99 96 89 81 80 82 78 97 100 98 100 100
99 100 100 100 100 100 100 100 99 86 83 93 96 96 100 100 100 99 98 98 100 98 100 99 100 99 100 100 99 92 90 92 89 88 86 84 87 88 95 99 100 100 100
100 98 99 100 100 100 100 100 100 100 100 100 100 100 100 100 100 100 100 100 100 98 100 100 99 100 96 96 98 94 91 90 96 99 92 87 88 88 91 99 100 100 100
99 99 100 100 100 100 100 100 100 100 100 100 100 100 100 100 100 100 100 100 100 100 100 100 99 100 99 100 99 99 99 100 99 97 94 94 95 98 98 96 99 100 100
98 98 100 100 100 100 100 100 100 100 100 100 100 100 100 100 100 100 100 100 100 100 100 99 97 97 95 98 99 99 99 99 100 99 96 95 89 94 94 98 99 100 99
98 99 98 99 98 100 100 100 100 100 100 100 100 100 100 100 100 100 100 99 100 100 100 100 99 99 99 97 99 100 100 100 100 100 100 100 100 100 99 97 98 98 91
97 98 99 99 99 99 99 99 100 100 100 100 100 100 100 100 99 100 99 98 94 98 100 99 100 99 98 99 99 100 100 100 100 100 100 100 100 98 100 100 96 97 100
98 98 99 100 99 98 98 99 99 98 100 99 100 100 100 100 97 98 93 96 96 97 97 97 100 99 99 99 100 100 99 99 100 100 100 99 100 100 100 99 100 100 100
98 100 99 99 100 100 100 100 100 100 100 98 98 99 100 100 96 99 95 95 96 97 100 100 99 99 99 100 99 99 99 100 100 98 98 98 99 100 100 100 100 99 100
97 94 96 98 97 98 97 97 99 96 95 97 99 98 99 99 99 98 96 97 97 98 98 96 96 99 98 98 100 100 100 100 99 96 95 94 95 99 100 100 99 100 100
89 91 92 89 96 92 92 92 91 89 89 87 89 91 95 100 100 100 100 100 99 100 100 99 98 98 98 98 98 99 96 92 93 95 97 99 99 96 99 100 100 100 100
83 83 84 89 85 85 88 89 89 89 87 87 85 88 88 94 96 100 100 100 97 99 96 98 97 96 98 98 98 95 96 98 100 99 100 100 100 99 94 94 97 100 100
77 77 76 76 82 88 79 82 89 91 90 90 92 91 90 93 97 98 96 96 95 95 94 92 92 93 91 95 93 95 98 99 99 100 99 97 97 95 95 95 96 96 97
66 69 68 65 69 72 94 86 81 89 87 90 94 94 95 95 94 92 91 88 94 96 92 91 92 92 90 91 93 93 94 95 98 96 96 96 97 98 98 96 96 96 96
57 57 64 62 63 64 65 68 83 88 87 84 84 86 90 89 89 88 82 80 80 82 82 88 91 91 92 92 94 94 93 94 94 94 93 92 93 95 97 98 96 97 94
64 64 62 64 64 66 66 67 67 70 75 80 81 80 81 82 84 85 83 72 71 70 73 75 77 76 70 75 85 90 94 97 96 97 93 92 92 92 93 95 97 97 96
72 74 69 71 71 71 70 69 68 68 67 69 75 76 79 78 79 80 81 70 66 65 63 65 70 68 66 66 75 76 83 89 95 97 96 98 96 91 91 93 94 95 95
76 76 76 74 73 72 70 67 66 65 64 64 65 75 72 78 74 77 80 78 72 68 66 64 67 71 71 71 84 85 87 81 81 83 91 93 94 91 91 92 93 91 92
73 77 72 69 67 66 65 63 62 62 62 62 64 85 73 73 70 71 74 79 76 72 74 70 73 79 85 80 79 83 75 79 76 79 83 88 90 78 72 70 68 62 56
69 67 66 64 63 64 64 61 60 61 60 59 61 80 77 74 71 70 73 80 81 79 81 81 81 81 81 80 78 88 81 85 88 87 79 84 81 78 73 69 66 60 54
66 65 60 60 62 66 66 62 64 66 64 65 67 68 78 76 74 73 75 89 92 90 85 86 92 84 86 89 88 88 85 85 87 92 93 80 76 74 72 70 71 66 57
66 69 64 59 68 66 67 69 70 68 67 69 75 77 79 87 82 82 85 88 86 90 92 91 91 91 93 99 99 94 93 95 95 96 98 94 74 91 80 76 70 72 74
72 75 69 67 71 72 78 74 78 74 78 79 85 85 84 81 82 86 94 94 90 89 98 95 94 100 98 100 99 97 100 100 100 100 99 92 93 91 84 71 73 80 73
80 78 72 73 76 83 88 85 81 86 86 87 87 81 79 81 80 85 91 91 92 88 94 91 97 92 99 98 100 100 81 72 66 75 100 94 88 85 89 78 86 74 80
80 76 75 80 80 80 82 81 80 81 81 83 85 90 83 82 85 90 96 93 91 92 85 95 93 100 98 92 100 92 84 84 85 83 100 98 92 91 98 82 82 75 75

GFSGL_925_rhum_120.txt.gz
RH
100 100 100 100 100 100 100 100 100 99 92 86 68 73 50 88 75 78 100 98 100 99 100 100 98 93 94 90 87 83 79 79 89 79 74 73 77 82 90 85 82 92 99
100 100 100 100 100 100 99 100 100 99 93 91 70 70 57 93 87 94 97 100 100 100 98 96 97 97 95 91 90 94 90 80 81 91 87 84 82 79 84 90 90 96 97
99 100 99 100 100 100 100 100 100 100 100 100 91 98 99 98 100 100 100 100 100 100 99 99 100 97 98 99 96 99 99 89 93 98 92 86 84 82 82 91 95 99 99
99 99 99 100 100 100 100 100 100 100 99 100 100 100 100 100 100 100 99 100 100 100 100 100 100 99 100 100 100 100 100 98 98 98 98 95 90 93 93 92 100 100 99
99 98 99 100 100 100 100 100 100 100 94 99 100 100 100 99 100 100 100 100 100 100 100 100 100 100 100 100 100 93 95 99 100 99 96 91 92 93 95 88 97 94 98
98 98 98 99 98 99 100 100 100 100 98 100 100 100 100 100 100 100 100 100 100 100 100 100 100 100 100 100 100 100 98 99 100 99 100 99 96 94 98 100 94 96 99
98 99 99 99 98 99 100 99 100 100 100 100 100 100 100 100 99 100 99 99 100 99 98 99 99 100 100 99 100 99 98 99 100 100 100 100 99 100 100 99 100 100 96
94 96 98 99 98 99 98 99 99 98 100 100 100 100 100 100 100 98 97 94 99 99 100 98 97 97 99 100 100 100 100 99 99 99 100 100 100 100 100 100 99 99 100
89 94 92 95 97 99 100 100 99 98 99 99 100 97 100 99 100 95 95 98 98 97 100 100 95 96 96 97 99 99 100 100 100 100 100 100 100 100 100 100 100 100 100
96 86 95 90 93 98 100 100 96 97 100 99 100 96 100 98 98 98 98 97 97 97 97 99 96 97 99 97 94 98 99 100 98 97 97 95 96 99 100 100 100 100 100
90 96 82 91 90 90 94 96 95 92 88 97 97 99 100 100 100 100 100 100 100 99 100 100 97 97 96 96 96 97 100 97 97 97 94 92 92 94 98 100 100 100 100
85 85 96 86 87 84 82 87 92 92 92 88 91 92 97 100 98 98 100 100 100 100 100 99 98 98 98 98 96 97 96 96 95 96 98 100 100 100 99 100 100 100 100
80 78 78 91 85 89 86 84 84 88 92 94 92 94 95 97 97 95 93 100 94 100 95 94 95 94 96 94 90 93 97 100 100 99 100 100 98 99 95 94 95 96 99
72 76 74 74 90 84 90 89 91 88 89 91 95 96 95 94 92 92 88 84 89 87 92 88 90 90 89 93 96 91 94 97 99 100 100 99 97 96 98 100 100 93 95
67 71 73 74 73 87 94 93 96 90 83 87 90 93 90 90 85 85 80 75 78 83 85 86 87 86 89 91 92 95 96 96 99 99 100 98 98 96 99 93 100 96 97
69 68 71 73 73 74 74 79 86 96 89 84 83 81 85 80 80 82 79 74 72 75 81 84 85 83 80 84 88 92 94 99 100 99 98 100 99 98 100 95 92 98 99
74 78 76 76 77 77 77 76 77 73 74 86 84 77 86 78 78 78 81 76 73 73 75 80 84 84 80 86 86 94 90 90 87 97 96 96 97 95 98 98 97 97 97
77 80 81 81 79 79 76 74 73 74 75 73 82 82 68 83 75 77 79 82 81 78 77 79 83 85 89 88 94 91 98 90 95 90 87 96 96 95 96 95 96 97 97
78 70 79 76 73 72 74 70 70 71 72 71 78 86 63 82 75 78 86 84 87 87 87 85 92 90 91 94 96 92 89 96 90 88 97 78 92 97 94 92 95 89 93
74 66 67 70 70 71 69 68 70 71 71 70 75 87 72 82 82 83 95 84 91 93 91 94 98 98 90 90 95 94 98 96 92 96 94 85 85 82 90 76 64 58 53
71 68 61 65 69 70 71 69 73 73 74 72 76 77 75 87 85 84 88 89 86 96 91 84 91 100 93 86 91 86 97 99 90 79 94 100 96 83 75 80 71 62 58
69 71 69 63 70 70 73 74 73 80 76 77 80 84 77 84 86 86 90 90 88 77 91 87 85 84 88 88 100 99 91 93 96 98 89 97 93 84 96 77 80 86 68
72 78 76 71 78 74 79 83 81 86 84 82 84 86 85 81 82 82 87 94 95 89 75 98 77 99 90 78 94 100 90 91 91 100 99 99 99 90 96 82 81 80 73
80 80 80 80 81 82 84 87 91 87 87 87 89 89 85 86 86 83 80 92 95 89 84 87 84 100 91 90 89 84 76 72 65 79 99 100 89 80 79 88 96 87 81
83 81 80 84 88 88 89 89 86 86 86 85 90 89 91 93 90 89 85 81 86 95 93 79 96 97 97 83 100 94 83 73 69 83 95 99 100 99 97 86 79 86 74
90 89 87 90 90 94 90 86 90 90 92 96 94 91 92 90 88 95 96 86 83 79 77 91 98 98 84 94 99 96 86 80 74 80 94 95 96 88 83 94 82 98 77